Location: Celina Elementary School
(33.3262°N, 96.7767°W)
Time: 09:13:48
(UTC+00:00)

SMAP - Pass Details

Date: 26 November 2021
Orbit: 682 x 683 km, 98.1° (Epoch: 19 January)

Event Time Altitude Azimuth Distance (km) Brightness Sun altitude
Rises 12:28:27 0° 15° (NNE) 3,049 6.4 -8.6°
Reaches altitude 10° 12:30:43 10° 19° (NNE) 2,130 5.6 -8.2°
Maximum altitude 12:35:21 66° 101° (E) 744 3.6 -7.3°
Drops below altitude 10° 12:39:57 10° 184° (S) 2,115 5.8 -6.4°
Sets 12:42:11 0° 187° (S) 3,026 6.6 -5.9°
